Location: Mentone
(34.5413°N, 85.5351°W)
Time: 02:28:38
(UTC-06:00)

A-11 Canister half - Visible Passes

Search period start: 21 January 2017 00:00
Search period end: 31 January 2017 00:00
Orbit: 1528 x 1682 km, 47.3° (Epoch: 19 January)

Date Brightness Start Highest point End Pass type
(mag) Time Alt. Az. Time Alt. Az. Time Alt. Az.
21 Jan 9.8 02:57:57 42° ENE 02:57:57 42° ENE 03:03:43 10° NE visible
21 Jan 9.4 04:56:16 33° WNW 04:59:56 45° NNW 05:09:08 10° NE visible
22 Jan 10.2 02:37:42 32° ENE 02:37:42 32° ENE 02:42:06 10° NE visible
22 Jan 9.3 04:36:01 40° NW 04:38:16 46° NNW 04:47:29 10° NE visible
23 Jan 10.6 02:17:24 24° ENE 02:17:24 24° ENE 02:20:29 10° ENE visible
23 Jan 9.2 04:15:43 46° NW 04:16:37 47° NNW 04:25:50 10° NE visible
23 Jan 9.8 06:14:53 10° WNW 06:23:40 39° N 06:32:42 10° ENE visible
24 Jan 10.9 01:57:04 17° ENE 01:57:04 17° ENE 01:58:52 10° ENE visible
24 Jan 9.3 03:55:22 48° NNW 03:55:22 48° NNW 04:04:12 10° NE visible
24 Jan 9.8 05:53:40 11° WNW 06:01:58 39° N 06:10:58 10° ENE visible
25 Jan 11.2 01:36:41 12° ENE 01:36:41 12° ENE 01:37:15 10° ENE visible
25 Jan 9.5 03:34:59 46° N 03:34:59 46° N 03:42:34 10° NE visible
25 Jan 9.8 05:33:17 16° NW 05:40:17 38° N 05:49:14 10° ENE visible
26 Jan 9.8 03:14:34 40° NNE 03:14:34 40° NNE 03:20:56 10° NE visible
26 Jan 9.8 05:12:52 21° NW 05:18:36 38° N 05:27:31 10° ENE visible
27 Jan 10.1 02:54:09 34° NNE 02:54:09 34° NNE 02:59:19 10° NE visible
27 Jan 9.8 04:52:26 26° NW 04:56:56 38° N 05:05:47 10° ENE visible
28 Jan 10.4 02:33:41 27° NE 02:33:41 27° NE 02:37:42 10° NE visible
28 Jan 9.7 04:31:59 30° NW 04:35:15 38° N 04:44:04 10° ENE visible
29 Jan 10.7 02:13:14 22° NE 02:13:14 22° NE 02:16:05 10° NE visible
29 Jan 9.7 04:11:31 34° NNW 04:13:34 38° N 04:22:22 10° ENE visible
29 Jan 9.5 06:11:05 10° NW 06:20:24 55° NNE 06:30:01 10° ESE visible
30 Jan 10.9 01:52:45 17° NE 01:52:45 17° NE 01:54:28 10° NE visible
30 Jan 9.7 03:51:03 37° NNW 03:51:53 38° N 04:00:39 10° ENE visible
30 Jan 9.6 05:49:30 10° NW 05:58:46 53° NNE 06:08:18 10° E visible
